sat.trackr.live / text

‹ back to catalog

STARLINK-33698

NORAD 63420 · 2025-065X

PAYLOAD ACTIVE UNKNOWN

§ Identity

Operator
Country
US
Launch date
2025-03-31
Launch site
AFETR
Launch vehicle
Mass (kg)
RCS (m²)

Purposes: comms

External: N2YO · Heavens-Above · Gunter

§ Orbital elements

Epoch: 2026-09-20T05:12:29.275200Z

Period
94.27 min
Inclination
42.9999°
Eccentricity
0.0001085
Mean motion
15.27583648 rev/d
Perigee alt
482.3 km
Apogee alt
483.8 km
Semi-major
6,861.2 km
B*
3.7702e-4
RAAN
88.1391°
Arg perigee
280.1267°
Mean anomaly
79.9462°
Rev number
8,259

§ Raw data

STARLINK-336981 63420U 25065X   26263.21700550  .00010128  00000+0  37702-3 0  99952 63420  42.9999  88.1391 0001085 280.1267  79.9462 15.27583648 82599

JSON: /api/v1/satellites/63420 · /tle

For live sub-satellite position, see the globe view (requires WebGL).

§ Visibility from observer

Set your observer location to see the next 7 days of passes ≥ 10°. The values pass through the URL so the page stays shareable.

No JS? Fill the form by hand. The geolocation button needs JavaScript.